Location: Sternwarte auf dem Internationalen Platz Vogelsang IP
(50.5721°N, 6.4398°E)
Time: 05:37:53
(UTC+01:00)

Transit 2A Rocket - Pass Details

Date: 12 December 2025
Orbit: 581 x 903 km, 66.7° (Epoch: 13 January)

Event Time Altitude Azimuth Distance (km) Brightness Sun altitude
Rises 14:07:36 0° 308° (NW) 3,499 8.3 13.1°
Reaches altitude 10° 14:11:01 10° 327° (NNW) 2,582 7.5 12.9°
Maximum altitude 14:15:00 18° 9° (N) 2,087 6.8 12.6°
Drops below altitude 10° 14:18:58 10° 50° (NE) 2,580 7.2 12.3°
Sets 14:22:23 0° 69° (ENE) 3,495 8.0 12.1°
